Regional Weather Roundup
Issued by NWS

Home | Current Version | Previous Version | Graphics & Text | Print | Product List | Glossary On
Versions: 1 2 3 4 5 6 7 8 9 10 11 12 13 14 15 16 17 18 19 20 21 22 23 24 25 26 27 28 29 30 31 32 33 34 35 36 37 38 39 40 41 42 43 44 45 46 47 48 49 50
000
ASUS43 KFSD 290302
RWRSD

WEATHER ROUNDUP FOR SOUTH DAKOTA
NATIONAL WEATHER SERVICE SIOUX FALLS SD
900 PM CST FRI NOV 28 2014

NOTE: "FAIR" INDICATES FEW OR NO CLOUDS BELOW 12,000 FEET WITH NO
SIGNIFICANT WEATHER AND/OR OBSTRUCTIONS TO VISIBILITY.


SDZ001>005-009-010-012>017-290400-
NORTHWEST AND NORTH CENTRAL SOUTH DAKOTA

CITY           SKY/WX    TMP DP  RH WIND       PRES   REMARKS
BUFFALO          N/A     46  29  51 SW12      29.38F
FAITH            N/A     37  27  67 S17       29.46F
MOBRIDGE       CLEAR     25  21  85 SE13      29.47F WCI  14
$$

SDZ012>016-024>037-041>051-057-063-072>074-290400-
SOUTHWEST AND SOUTH CENTRAL SOUTH DAKOTA

CITY           SKY/WX    TMP DP  RH WIND       PRES   REMARKS
RAPID CTY ARPT MOCLDY    50  25  37 SW7       29.51F
PIERRE         CLEAR     25  22  88 E5        29.51F WCI  19
CUSTER         MOCLDY    47  20  34 W16G24    29.61F
ELLSWORTH AFB  MOCLDY    49  25  39 SW8       29.50F
PHILIP         MOCLDY    35  28  75 W6        29.50F
PINE RIDGE     CLEAR     45  23  42 W10       29.60F
WINNER         FAIR      42  29  59 S9        29.52F
$$

SDZ004>011-016>023-039-040-290400-
NORTHEAST SOUTH DAKOTA

CITY           SKY/WX    TMP DP  RH WIND       PRES   REMARKS
ABERDEEN       PTCLDY    14  11  87 SE3       29.57F
WATERTOWN      PTCLDY    18  16  92 SE9       29.59F WCI   7
SISSETON         N/A     17  15  92 S17       29.63F WCI   1
$$

SDZ017-020-022-023-036>040-048>070-290400-
SOUTHEAST SOUTH DAKOTA

CITY           SKY/WX    TMP DP  RH WIND       PRES   REMARKS
SIOUX FALLS    MOCLDY    24  22  91 E6        29.61F WCI  17
HURON          CLEAR     28  25  88 SE8       29.57F WCI  20
MITCHELL       MOCLDY    27  25  92 SE7       29.59F FOG     WCI  19
YANKTON        MOCLDY    30  27  86 E3        29.61F
$$

ABBREVIATIONS USED IN REMARKS
   TC - TEMPERATURE IN CELSIUS
  WCI - WIND CHILL INDEX
   HX - HEAT INDEX
  VSB - VISIBILITY




USA.gov is the U.S. government's official web portal to all federal, state and local government web resources and services.